Вернуться в каталог

CZ-3C R/B

АктивенHEO
NORAD 34780·ROCKET BODY·🇨🇳 China

Запущен Apr 14, 2009 с Xichang Satellite Launch Center

Loading…

Ближайшие Пролёты (ближайшие 24 часа)

TLE

СвежийSource: Space-Track

Эпоха: Sep 8, 2026, 19:51 UTC

1 34780U 09018B   26251.82739439  .00001744  00000-0  10023-2 0  9995
2 34780  20.8566 319.9435 7021932 259.3142  21.1835  2.58761719153640

Отслеживайте CZ-3C R/B в реальном времени с AllMySat

Download on the App Store